Location: Walton
(43.6794°N, 81.3017°W)
Time: 21:43:47
(UTC+00:00)

Cosmos 1937 Rocket - Pass Details

Date: 09 December 2025
Orbit: 743 x 775 km, 74.0° (Epoch: 21 January)

Event Time Altitude Azimuth Distance (km) Brightness Sun altitude
Exits shadow 10:27:46 41° 350° (N) 1,074 4.0 -24.3°
Maximum altitude 10:29:34 78° 69° (ENE) 764 3.5 -24.0°
Drops below altitude 10° 10:34:41 10° 156° (SSE) 2,255 6.3 -23.1°
Sets 10:37:02 0° 158° (SSE) 3,178 7.2 -22.7°
